| time (UTC) | temp F | wind direction | speed MPH | gust MPH | rain 1hr in | rain 24hr in | rain mn in | humidity % | barometer mb |
| 20260831151705 | 87 | 96 | 6.0 | 10.0 | 0.00 | 0.00 | 0.00 | 86 | 1016.9 |
| 20260831151204 | 87 | 113 | 5.0 | 9.0 | 0.00 | 0.00 | 0.00 | 88 | 1016.9 |
| 20260831150704 | 86 | 96 | 5.0 | 8.0 | 0.00 | 0.00 | 0.00 | 88 | 1016.9 |
| 20260831150203 | 86 | 104 | 6.0 | 8.0 | 0.00 | 0.00 | 0.00 | 87 | 1016.9 |
| 20260831144204 | 85 | 65 | 5.0 | 6.0 | 0.00 | 0.00 | 0.00 | 91 | 1016.9 |
| 20260831143204 | 85 | 78 | 5.0 | 7.0 | 0.00 | 0.00 | 0.00 | 89 | 1016.9 |
| 20260831141704 | 86 | 89 | 3.0 | 6.0 | 0.00 | 0.00 | 0.00 | 89 | 1015.9 |
| 20260831141204 | 86 | 85 | 3.0 | 6.0 | 0.00 | 0.00 | 0.00 | 87 | 1015.9 |
| 20260831140704 | 86 | 46 | 0.0 | 3.0 | 0.00 | 0.08 | 0.00 | 89 | 1015.9 |
| 20260831140203 | 86 | 87 | 4.0 | 6.0 | 0.00 | 0.12 | 0.00 | 89 | 1015.9 |
| 20260831134203 | 85 | 100 | 2.0 | 3.0 | 0.00 | 0.12 | 0.00 | 92 | 1015.9 |
| 20260831133704 | 84 | 81 | 1.0 | 3.0 | 0.00 | 0.12 | 0.00 | 94 | 1015.9 |
| 20260831131704 | 83 | 80 | 2.0 | 3.0 | 0.00 | 0.12 | 0.00 | 100 | 1015.9 |
| 20260831131204 | 82 | 77 | 1.0 | 3.0 | 0.00 | 0.12 | 0.00 | 100 | 1015.9 |
| 20260831130703 | 82 | 73 | 3.0 | 3.0 | 0.00 | 0.12 | 0.00 | 100 | 1015.9 |
| 20260831130204 | 82 | 60 | 3.0 | 3.0 | 0.00 | 0.12 | 0.00 | 100 | 1015.9 |
| 20260831124703 | 81 | 62 | 2.0 | 3.0 | 0.00 | 0.12 | 0.00 | 100 | 1015.9 |
| 20260831123703 | 81 | 84 | 0.0 | 0.0 | 0.00 | 0.12 | 0.00 | 100 | 1015.9 |
| 20260831121703 | 79 | 314 | 0.0 | 0.0 | 0.00 | 0.12 | 0.00 | 100 | 1015.9 |
| 20260831121204 | 79 | 314 | 0.0 | 0.0 | 0.00 | 0.12 | 0.00 | 100 | 1015.9 |
| 20260831120704 | 78 | 315 | 0.0 | 0.0 | 0.00 | 0.12 | 0.00 | 100 | 1015.9 |
| 20260831120203 | 78 | 315 | 0.0 | 0.0 | 0.00 | 0.12 | 0.00 | 100 | 1014.9 |
| 20260831114704 | 77 | 315 | 0.0 | 0.0 | 0.00 | 0.12 | 0.00 | 100 | 1014.9 |
| 20260831114205 | 77 | 315 | 0.0 | 0.0 | 0.00 | 0.12 | 0.00 | 100 | 1014.9 |
| 20260831113704 | 77 | 275 | 0.0 | 0.0 | 0.00 | 0.12 | 0.00 | 100 | 1014.9 |
| 20260831113204 | 77 | 278 | 0.0 | 0.0 | 0.00 | 0.12 | 0.00 | 100 | 1014.9 |
| 20260831111704 | 77 | 332 | 0.0 | 0.0 | 0.00 | 0.12 | 0.00 | 100 | 1014.9 |
| 20260831111203 | 77 | 339 | 0.0 | 0.0 | 0.00 | 0.12 | 0.00 | 100 | 1014.9 |
| 20260831110703 | 77 | 339 | 0.0 | 0.0 | 0.00 | 0.12 | 0.00 | 100 | 1014.9 |
| 20260831110204 | 77 | 339 | 0.0 | 0.0 | 0.00 | 0.12 | 0.00 | 100 | 1014.9 |
| 20260831104705 | 77 | 339 | 0.0 | 0.0 | 0.00 | 0.12 | 0.00 | 100 | 1014.9 |
| 20260831103704 | 77 | 339 | 0.0 | 0.0 | 0.00 | 0.12 | 0.00 | 100 | 1014.9 |
| 20260831103203 | 77 | 339 | 0.0 | 0.0 | 0.00 | 0.12 | 0.00 | 100 | 1014.9 |
| 20260831101703 | 77 | 337 | 0.0 | 0.0 | 0.00 | 0.12 | 0.00 | 100 | 1013.9 |
| 20260831101204 | 77 | 337 | 1.0 | 3.0 | 0.00 | 0.12 | 0.00 | 100 | 1013.9 |
| 20260831100703 | 77 | 329 | 3.0 | 3.0 | 0.00 | 0.12 | 0.00 | 100 | 1013.9 |
| 20260831100203 | 77 | 330 | 2.0 | 3.0 | 0.00 | 0.12 | 0.00 | 100 | 1013.9 |
| 20260831094704 | 77 | 0 | 0.0 | 0.0 | 0.00 | 0.12 | 0.00 | 100 | 1013.9 |
| 20260831094204 | 77 | 0 | 0.0 | 0.0 | 0.00 | 0.12 | 0.00 | 100 | 1013.9 |
| 20260831093705 | 77 | 0 | 0.0 | 0.0 | 0.00 | 0.12 | 0.00 | 100 | 1013.9 |
| 20260831093203 | 77 | 0 | 0.0 | 3.0 | 0.00 | 0.12 | 0.00 | 100 | 1013.9 |
| 20260831091704 | 77 | 344 | 0.0 | 3.0 | 0.00 | 0.12 | 0.00 | 100 | 1014.8 |
| 20260831091203 | 78 | 344 | 1.0 | 3.0 | 0.00 | 0.12 | 0.00 | 100 | 1014.9 |
| 20260831090704 | 78 | 357 | 1.0 | 3.0 | 0.00 | 0.12 | 0.00 | 100 | 1014.9 |
| 20260831090204 | 78 | 353 | 2.0 | 3.0 | 0.00 | 0.12 | 0.00 | 100 | 1014.9 |
| 20260831084704 | 78 | 113 | 0.0 | 0.0 | 0.00 | 0.12 | 0.00 | 100 | 1014.9 |
| 20260831084204 | 78 | 113 | 0.0 | 0.0 | 0.00 | 0.12 | 0.00 | 100 | 1014.9 |
| 20260831083704 | 78 | 113 | 0.0 | 0.0 | 0.00 | 0.12 | 0.00 | 100 | 1014.9 |
| 20260831083203 | 78 | 113 | 0.0 | 0.0 | 0.00 | 0.12 | 0.00 | 100 | 1014.9 |
| 20260831081704 | 78 | 113 | 0.0 | 0.0 | 0.00 | 0.12 | 0.00 | 100 | 1014.9 |
| 20260831081204 | 78 | 113 | 0.0 | 0.0 | 0.00 | 0.12 | 0.00 | 100 | 1014.9 |
| 20260831080204 | 78 | 113 | 0.0 | 0.0 | 0.00 | 0.12 | 0.00 | 100 | 1014.9 |
| 20260831074703 | 78 | 113 | 0.0 | 0.0 | 0.00 | 0.12 | 0.00 | 100 | 1014.9 |
| 20260831074204 | 78 | 113 | 0.0 | 0.0 | 0.00 | 0.12 | 0.00 | 100 | 1014.9 |
| 20260831073703 | 78 | 113 | 0.0 | 2.0 | 0.00 | 0.12 | 0.00 | 100 | 1014.9 |
| 20260831071703 | 78 | 80 | 3.0 | 3.0 | 0.00 | 0.12 | 0.00 | 100 | 1014.9 |
| 20260831071204 | 78 | 90 | 3.0 | 3.0 | 0.00 | 0.12 | 0.00 | 100 | 1014.9 |
| 20260831070703 | 78 | 107 | 0.0 | 3.0 | 0.00 | 0.12 | 0.00 | 100 | 1014.9 |
| 20260831070204 | 78 | 95 | 2.0 | 6.0 | 0.00 | 0.12 | 0.00 | 100 | 1014.9 |
| 20260831064703 | 78 | 63 | 3.0 | 6.0 | 0.00 | 0.12 | 0.00 | 100 | 1014.9 |
| 20260831064204 | 78 | 62 | 2.0 | 3.0 | 0.00 | 0.12 | 0.00 | 100 | 1014.9 |
| 20260831063703 | 79 | 357 | 0.0 | 0.0 | 0.00 | 0.12 | 0.00 | 100 | 1014.9 |
| 20260831063203 | 79 | 357 | 0.0 | 0.0 | 0.00 | 0.12 | 0.00 | 100 | 1014.9 |
| 20260831061203 | 79 | 357 | 0.0 | 0.0 | 0.00 | 0.12 | 0.00 | 100 | 1015.9 |
| 20260831060704 | 79 | 357 | 0.0 | 0.0 | 0.00 | 0.12 | 0.00 | 100 | 1015.9 |
| 20260831060203 | 79 | 357 | 0.0 | 0.0 | 0.00 | 0.12 | 0.00 | 100 | 1015.9 |
| 20260831054704 | 79 | 353 | 0.0 | 0.0 | 0.00 | 0.12 | 0.00 | 100 | 1015.9 |
| 20260831053704 | 79 | 353 | 0.0 | 0.0 | 0.00 | 0.12 | 0.00 | 100 | 1015.9 |
| 20260831053204 | 79 | 356 | 0.0 | 3.0 | 0.00 | 0.12 | 0.00 | 100 | 1015.9 |
| 20260831051704 | 79 | 91 | 0.0 | 0.0 | 0.00 | 0.12 | 0.00 | 100 | 1015.9 |
| 20260831051204 | 79 | 91 | 0.0 | 0.0 | 0.00 | 0.12 | 0.00 | 100 | 1015.9 |
| 20260831050203 | 80 | 233 | 0.0 | 0.0 | 0.00 | 0.12 | 0.00 | 100 | 1015.9 |
| 20260831044703 | 80 | 233 | 0.0 | 0.0 | 0.00 | 0.12 | 0.00 | 100 | 1015.9 |
| 20260831044203 | 80 | 233 | 0.0 | 0.0 | 0.00 | 0.12 | 0.00 | 99 | 1015.9 |
| 20260831043704 | 80 | 233 | 0.0 | 0.0 | 0.00 | 0.12 | 0.00 | 99 | 1015.9 |
| 20260831043204 | 80 | 233 | 0.0 | 0.0 | 0.00 | 0.12 | 0.00 | 99 | 1015.9 |
| 20260831041703 | 80 | 233 | 0.0 | 3.0 | 0.00 | 0.12 | 0.00 | 98 | 1016.9 |
| 20260831041204 | 80 | 232 | 2.0 | 2.0 | 0.00 | 0.12 | 0.00 | 99 | 1016.9 |
| 20260831040703 | 80 | 232 | 1.0 | 3.0 | 0.00 | 0.12 | 0.00 | 99 | 1016.9 |
| 20260831040204 | 80 | 232 | 3.0 | 3.0 | 0.00 | 0.12 | 0.00 | 99 | 1016.9 |
| 20260831034704 | 80 | 243 | 2.0 | 3.0 | 0.00 | 0.12 | 0.12 | 98 | 1016.9 |
| 20260831034204 | 80 | 237 | 3.0 | 3.0 | 0.00 | 0.12 | 0.12 | 98 | 1016.9 |
| 20260831033204 | 81 | 219 | 0.0 | 0.0 | 0.00 | 0.12 | 0.12 | 97 | 1016.9 |
| 20260831031704 | 81 | 219 | 0.0 | 0.0 | 0.00 | 0.12 | 0.12 | 97 | 1015.9 |
| 20260831030704 | 81 | 219 | 0.0 | 0.0 | 0.00 | 0.12 | 0.12 | 97 | 1015.9 |
| 20260831030204 | 81 | 180 | 0.0 | 5.0 | 0.00 | 0.12 | 0.12 | 97 | 1015.9 |
| 20260831024204 | 82 | 205 | 5.0 | 8.0 | 0.00 | 0.12 | 0.12 | 96 | 1015.9 |
| 20260831021705 | 82 | 75 | 0.0 | 0.0 | 0.00 | 0.12 | 0.12 | 98 | 1015.9 |
| 20260831021203 | 82 | 75 | 0.0 | 0.0 | 0.00 | 0.12 | 0.12 | 98 | 1015.9 |
| 20260831020704 | 82 | 75 | 0.0 | 0.0 | 0.00 | 0.12 | 0.12 | 98 | 1015.9 |
| 20260831020203 | 82 | 75 | 0.0 | 0.0 | 0.00 | 0.12 | 0.12 | 98 | 1015.9 |
| 20260831014704 | 82 | 75 | 0.0 | 0.0 | 0.00 | 0.12 | 0.12 | 97 | 1015.9 |
| 20260831014205 | 82 | 75 | 0.0 | 0.0 | 0.00 | 0.12 | 0.12 | 97 | 1015.9 |
| 20260831013204 | 82 | 75 | 0.0 | 3.0 | 0.00 | 0.12 | 0.12 | 97 | 1015.9 |
| 20260831011704 | 82 | 68 | 2.0 | 3.0 | 0.00 | 0.12 | 0.12 | 96 | 1015.9 |
| 20260831010703 | 82 | 88 | 0.0 | 0.0 | 0.00 | 0.12 | 0.12 | 96 | 1015.9 |
| 20260831010204 | 82 | 88 | 0.0 | 3.0 | 0.00 | 0.12 | 0.12 | 96 | 1015.9 |
| 20260831004704 | 82 | 92 | 3.0 | 3.0 | 0.00 | 0.12 | 0.12 | 95 | 1015.9 |
| 20260831004205 | 82 | 99 | 2.0 | 5.0 | 0.00 | 0.12 | 0.12 | 95 | 1015.9 |
| 20260831003704 | 82 | 92 | 3.0 | 3.0 | 0.00 | 0.12 | 0.12 | 95 | 1015.9 |
| 20260831001704 | 82 | 88 | 3.0 | 6.0 | 0.00 | 0.12 | 0.12 | 95 | 1015.9 |
| 20260831001204 | 82 | 98 | 4.0 | 6.0 | 0.00 | 0.12 | 0.12 | 93 | 1015.9 |
| 20260831000703 | 82 | 97 | 3.0 | 6.0 | 0.00 | 0.12 | 0.12 | 89 | 1015.9 |
| 20260831000204 | 83 | 94 | 4.0 | 6.0 | 0.00 | 0.12 | 0.12 | 88 | 1015.9 |
| 20260830234703 | 83 | 86 | 3.0 | 5.0 | 0.00 | 0.12 | 0.12 | 84 | 1015.9 |
| 20260830234204 | 83 | 90 | 3.0 | 3.0 | 0.00 | 0.12 | 0.12 | 84 | 1015.9 |
| 20260830233703 | 83 | 90 | 3.0 | 6.0 | 0.00 | 0.12 | 0.12 | 84 | 1015.9 |
| 20260830233204 | 83 | 96 | 3.0 | 6.0 | 0.00 | 0.12 | 0.12 | 84 | 1014.9 |
| 20260830231703 | 83 | 96 | 3.0 | 6.0 | 0.00 | 0.12 | 0.12 | 85 | 1014.9 |
| 20260830231204 | 84 | 93 | 3.0 | 6.0 | 0.00 | 0.12 | 0.12 | 85 | 1014.9 |
| 20260830230704 | 84 | 97 | 3.0 | 6.0 | 0.00 | 0.12 | 0.12 | 85 | 1014.9 |
| 20260830230204 | 84 | 104 | 4.0 | 6.0 | 0.00 | 0.12 | 0.12 | 84 | 1014.9 |
| 20260830224203 | 85 | 82 | 3.0 | 6.0 | 0.00 | 0.12 | 0.12 | 82 | 1014.9 |
| 20260830223704 | 85 | 72 | 3.0 | 6.0 | 0.00 | 0.12 | 0.12 | 82 | 1014.9 |
| 20260830223203 | 85 | 79 | 5.0 | 9.0 | 0.00 | 0.12 | 0.12 | 81 | 1015.9 |
| 20260830221704 | 85 | 104 | 4.0 | 7.0 | 0.00 | 0.12 | 0.12 | 82 | 1015.9 |
| 20260830221204 | 85 | 117 | 6.0 | 7.0 | 0.00 | 0.12 | 0.12 | 81 | 1015.9 |
| 20260830220703 | 85 | 102 | 4.0 | 6.0 | 0.00 | 0.12 | 0.12 | 81 | 1015.9 |
| 20260830220204 | 85 | 104 | 4.0 | 6.0 | 0.00 | 0.12 | 0.12 | 83 | 1014.9 |
| 20260830214704 | 85 | 65 | 4.0 | 6.0 | 0.00 | 0.12 | 0.12 | 81 | 1014.9 |
| 20260830214203 | 86 | 81 | 4.0 | 6.0 | 0.00 | 0.12 | 0.12 | 80 | 1014.9 |
| 20260830213704 | 86 | 100 | 5.0 | 6.0 | 0.00 | 0.12 | 0.12 | 80 | 1014.9 |
| 20260830211703 | 86 | 62 | 5.0 | 6.0 | 0.00 | 0.12 | 0.12 | 79 | 1014.9 |
| 20260830211203 | 86 | 85 | 5.0 | 8.0 | 0.00 | 0.12 | 0.12 | 78 | 1014.9 |
| 20260830210703 | 86 | 75 | 5.0 | 8.0 | 0.00 | 0.12 | 0.12 | 77 | 1014.9 |
| 20260830210204 | 86 | 66 | 3.0 | 8.0 | 0.00 | 0.12 | 0.12 | 76 | 1014.9 |
| 20260830204704 | 86 | 82 | 5.0 | 6.0 | 0.00 | 0.12 | 0.12 | 81 | 1014.9 |
| 20260830204203 | 86 | 101 | 5.0 | 6.0 | 0.00 | 0.12 | 0.12 | 78 | 1014.9 |
| 20260830203204 | 86 | 104 | 5.0 | 8.0 | 0.00 | 0.12 | 0.12 | 79 | 1014.9 |
| 20260830201203 | 86 | 116 | 5.0 | 8.0 | 0.00 | 0.12 | 0.12 | 81 | 1014.9 |
| 20260830200704 | 86 | 50 | 4.0 | 6.0 | 0.00 | 0.16 | 0.12 | 80 | 1014.9 |
| 20260830200204 | 86 | 80 | 4.0 | 6.0 | 0.00 | 0.16 | 0.12 | 81 | 1015.9 |
| 20260830194704 | 86 | 126 | 3.0 | 5.0 | 0.00 | 0.16 | 0.12 | 81 | 1015.9 |
| 20260830194204 | 86 | 122 | 3.0 | 3.0 | 0.00 | 0.16 | 0.12 | 83 | 1015.9 |
| 20260830193704 | 86 | 86 | 3.0 | 6.0 | 0.00 | 0.16 | 0.12 | 83 | 1015.9 |
| 20260830193203 | 86 | 54 | 5.0 | 8.0 | 0.00 | 0.16 | 0.12 | 84 | 1015.9 |
| 20260830191703 | 86 | 89 | 5.0 | 6.0 | 0.00 | 0.16 | 0.12 | 85 | 1015.9 |
| 20260830190704 | 85 | 84 | 4.0 | 6.0 | 0.00 | 0.16 | 0.12 | 84 | 1015.9 |
| 20260830184703 | 86 | 73 | 6.0 | 9.0 | 0.00 | 0.16 | 0.12 | 82 | 1015.9 |
| 20260830183704 | 86 | 119 | 2.0 | 6.0 | 0.00 | 0.16 | 0.12 | 75 | 1015.9 |
| 20260830183204 | 86 | 102 | 4.0 | 6.0 | 0.00 | 0.16 | 0.12 | 75 | 1016.9 |
| 20260830181704 | 86 | 109 | 1.0 | 3.0 | 0.00 | 0.16 | 0.12 | 79 | 1016.9 |
| 20260830181203 | 85 | 100 | 1.0 | 5.0 | 0.00 | 0.16 | 0.12 | 79 | 1016.9 |
| 20260830180703 | 85 | 118 | 1.0 | 3.0 | 0.00 | 0.16 | 0.12 | 77 | 1016.9 |
| 20260830180204 | 85 | 106 | 2.0 | 6.0 | 0.00 | 0.16 | 0.12 | 77 | 1016.9 |
| 20260830174204 | 85 | 139 | 2.0 | 3.0 | 0.00 | 0.16 | 0.12 | 76 | 1016.9 |
| 20260830171704 | 85 | 204 | 3.0 | 6.0 | 0.00 | 0.16 | 0.12 | 82 | 1016.9 |
| 20260830171204 | 85 | 157 | 1.0 | 6.0 | 0.00 | 0.16 | 0.12 | 83 | 1016.9 |
| 20260830170704 | 84 | 179 | 3.0 | 6.0 | 0.00 | 0.16 | 0.12 | 83 | 1016.9 |
| 20260830170204 | 84 | 156 | 1.0 | 5.0 | 0.00 | 0.16 | 0.12 | 81 | 1016.9 |
| 20260830164703 | 83 | 274 | 0.0 | 2.0 | 0.00 | 0.16 | 0.12 | 84 | 1016.9 |
| 20260830164204 | 83 | 331 | 0.0 | 0.0 | 0.00 | 0.16 | 0.12 | 85 | 1016.9 |
| 20260830163704 | 83 | 102 | 0.0 | 3.0 | 0.00 | 0.16 | 0.12 | 85 | 1016.9 |
| 20260830163204 | 83 | 357 | 0.0 | 3.0 | 0.00 | 0.16 | 0.12 | 85 | 1017.9 |
| 20260830161704 | 82 | 155 | 1.0 | 3.0 | 0.00 | 0.16 | 0.12 | 85 | 1017.9 |
| 20260830161203 | 83 | 138 | 1.0 | 6.0 | 0.00 | 0.16 | 0.12 | 85 | 1017.9 |
| 20260830160204 | 82 | 211 | 2.0 | 10.0 | 0.00 | 0.16 | 0.12 | 87 | 1017.9 |
| 20260830154705 | 83 | 189 | 7.0 | 10.0 | 0.00 | 0.16 | 0.12 | 87 | 1016.9 |
| 20260830154204 | 83 | 219 | 6.0 | 8.0 | 0.00 | 0.16 | 0.12 | 90 | 1016.9 |
| 20260830153704 | 83 | 221 | 2.0 | 7.0 | 0.00 | 0.16 | 0.12 | 89 | 1016.9 |
| 20260830153204 | 83 | 210 | 0.0 | 10.0 | 0.00 | 0.16 | 0.12 | 88 | 1017.9 |